Other Public Products
Issued by NWS Grand Forks, ND

Home | Current Version | Previous Version | Graphics & Text | Print | Product List | Glossary On
Versions: 1 2 3 4 5 6 7 8 9 10 11 12 13 14 15 16 17 18 19 20 21 22 23 24 25 26 27 28 29 30 31 32 33 34 35 36 37 38 39 40 41 42 43 44 45 46 47 48 49 50
000
FPUS83 KFGF 190831
OPUFGF
PRAIRIE TO PINES WEATHER ROUNDUP
NATIONAL WEATHER SERVICE EASTERN NORTH DAKOTA/GRAND FORKS ND
300 AM CDT FRI SEP 19 2014

 **SATELLITE DATA USED TO AUGMENT SKY COVER AT AUTOMATED STATIONS**
 *****  WEATHER ACROSS EASTERN NORTH DAKOTA  *****

CITY           SKY/WX    TMP DP  RH WIND       PRES   REMARKS
GRAND FORKS    CLOUDY    66  57  72 S21G28    29.62F
GRAND FORKS AF CLOUDY    67  59  75 SW23G30   29.61F
GRAND CITY NWS   N/A     64 N/A N/A S21         N/A
BUXTON           N/A     63  60  91 S9          N/A
DEVILS LAKE    CLOUDY    66  57  72 S18G25    29.57F
FARGO          CLOUDY    65  55  70 S20G28    29.72F
WAHPETON ARPT  CLOUDY    63  52  67 S16G25    29.75F
$$

 *****  WEATHER ACROSS CENTRAL AND WESTERN NORTH DAKOTA  *****

CITY           SKY/WX    TMP DP  RH WIND       PRES   REMARKS
JAMESTOWN      CLOUDY    64  58  80 S15       29.65F
BISMARCK       CLOUDY    66  60  81 S5        29.64F
MINOT          CLOUDY    68  58  70 SW10      29.54F
MINOT AFB      CLOUDY    68  59  73 W9        29.54F
GARRISON         N/A     66  63  90 SW7       29.58F
WILLISTON      CLOUDY    61  54  77 SW8       29.58F
DICKINSON      CLOUDY    64  53  67 S10       29.63F
HETTINGER      CLOUDY    64  54  69 CALM      29.68F
$$

 *****  OTHER OBSERVATIONS NORTHEAST NORTH DAKOTA  *****

CITY           SKY/WX    TMP DP  RH WIND       PRES   REMARKS
WALHALLA         N/A     70  64  83 SW20G31   29.52F
LANGDON        FAIR      66  59  77 S18G25    29.56F
CAVALIER       FAIR      68  59  73 S14       29.55F
GRAFTON        FAIR      68  59  73 S16G24    29.58F
CANDO          FAIR      66  59  77 S15       29.55F
FORT TOTTEN      N/A     66  59  79 S13       29.95S
ROLLA          FAIR      66  64  94 SW15      29.55F
RUGBY          FAIR      66  63  88 SW13      29.55S
 ***** THE ABOVE OBSERVATIONS ARE NON NWS ARE NOT QUALITY
        CONTROLLED AND MAY MIS-REPORT RAIN FOR SNOW...
$$

 *****  OTHER OBSERVATIONS SOUTHEAST NORTH DAKOTA *****

CITY           SKY/WX    TMP DP  RH WIND       PRES   REMARKS
COOPERSTOWN    NOT AVBL
VALLEY CITY    FAIR      64  63  94 S15G21    29.67F
OAKES            N/A     64  59  82 S22G30    29.67F
GWINNER        SUNNY     66  57  72 S16       29.71F
SHEYENNE NWR     N/A     63  56  78 S10       29.95
BUFFALO          N/A     63  56  77 S13         N/A
WYNDMERE         N/A     64  55  72 S9          N/A
 ***** THE ABOVE OBSERVATIONS ARE NON NWS ARE NOT QUALITY
       CONTROLLED AND MAY MIS-REPORT RAIN FOR SNOW...
$$

  *****  WEATHER ACROSS NORTHERN MINNESOTA  *****

CITY           SKY/WX    TMP DP  RH WIND       PRES   REMARKS
FLAG ISLAND    CLOUDY    59  55  88 S16       29.61F
WARROAD        CLOUDY    63  55  77 S14       29.63F
ROSEAU         CLOUDY    64  55  72 S17       29.62F
HALLOCK        CLOUDY    66  57  72 S14       29.59F
THF RVR FALLS  CLOUDY    66  55  68 S17G29    29.65F
HALSTAD          N/A     63  54  70 S20         N/A
FOSSTON        LGT RAIN  59  54  82 S24G35    29.69F
BAUDETTE       CLOUDY    61  53  75 S14G23    29.68F
WASKISH        CLOUDY    61  54  77 S9G21     29.71F
CROOKSTON      LGT RAIN  64  57  77 S24G30    29.66R
$$
  *****  WEATHER ACROSS CENTRAL AND WEST MINNESOTA  *****

CITY           SKY/WX    TMP DP  RH WIND       PRES   REMARKS
BEMIDJI        CLOUDY    61  51  70 S13G22    29.76F
PARK RAPIDS    CLOUDY    59  51  75 S10       29.83F
WADENA         CLOUDY    61  52  72 S8        29.83S
DETROIT LAKES  CLOUDY    63  54  72 S13       29.79F
MOORHEAD       CLOUDY    64  57  77 S13G18    29.74S
FERGUS FALLS   CLOUDY    63  52  67 S18G28    29.78F
ELBOW LAKE     FAIR      60  54  79 S17       29.80F
MORRIS MN      CLOUDY    61  54  77 S15       29.81F
STAPLES        CLOUDY    57  48  72 S10       29.85F
WHEATON        CLOUDY    59  54  82 SE15      29.78F
$$
  *****  WEATHER ELSEWHERE ACROSS MINNESOTA  *****

CITY           SKY/WX    TMP DP  RH WIND       PRES   REMARKS
DULUTH         CLOUDY    52  50  93 S10       29.93F FOG
INTRNTL FALLS  CLOUDY    56  51  84 S8        29.77F
ELY            MOCLDY    54  48  82 S13       29.88F
CLOQUET        CLOUDY    48  46  93 SE2       29.93F
BRAINERD       CLOUDY    58  50  75 S13       29.88S
HIBBING        CLOUDY    55  52  89 S9        29.88F
ALEXANDRIA     CLOUDY    61  51  70 S18G25    29.86F
SAINT CLOUD    MOCLDY    62  52  69 S12       29.91F
MINNEAPOLIS    MOCLDY    59  52  77 SE9       29.98F
$$

  *****  WEATHER ACROSS SOUTH DAKOTA  *****

CITY           SKY/WX    TMP DP  RH WIND       PRES   REMARKS
SIOUX FALLS    MOCLDY    61  56  83 S18G24    29.86F
BROOKINGS      NOT AVBL
WATERTOWN      CLOUDY    62  55  77 S23G31    29.80F
HURON          CLOUDY    65  57  75 S20G29    29.76F
SISSETON         N/A     64  57  78 S14G24    29.74F
ABERDEEN       CLOUDY    65  58  78 S18G29    29.69F
MITCHELL       MOCLDY    63  58  83 S16G26    29.80F
PIERRE         MOCLDY    63  60  90 SE12      29.69R
MOBRIDGE       LGT RAIN  67  62  84 E13G21    29.64F
RAPID CITY     MOCLDY    70  52  52 N22G29    29.77R
$$

  *****  SOME WEATHER IN NEARBY STATES *****

CITY           SKY/WX    TMP DP  RH WIND       PRES   REMARKS
GLASGOW MT     PTCLDY    62  50  64 W7        29.63R
GREAT FALLS MT MOCLDY    60  43  53 SW12      29.78R
CHEYENNE WY    CLEAR     59  41  51 W7        29.99F
SCOTTSBLUFF NE CLEAR     62  56  80 NE5       29.84F
OMAHA NE       CLOUDY    62  58  86 SE12      29.98F
DES MOINES IA  PTCLDY    58  54  86 S8        30.03F
DAVENPORT IA   CLEAR     53  50  89 SE8       30.11F FOG
CHICAGO IL     CLEAR     55  52  89 E5        30.14F
EAU CLAIRE WI  PTCLDY    54  51  90 S9        30.04F
LA CROSSE WI   PTCLDY    58  53  84 S10       30.07F
$$

  *****  SOME NATIONAL WEATHER *****

CITY           SKY/WX    TMP DP  RH WIND       PRES   REMARKS
LA GUARDIA NY  CLEAR     60  50  69 N8        30.17R
RALEIGH NC     MOCLDY    64  59  83 CALM      30.10R
ATLANTA GA     CLOUDY    73  66  78 CALM      30.01F
NEW ORLEANS LA CLOUDY    74  68  81 SW5       29.90F
OKLAHOMA CITY  PTCLDY    67  64  90 CALM      29.96F
ALBUQUERQUE NM MOCLDY    68  57  68 CALM      30.07F
SALT LAKE CITY PTCLDY    67  52  58 W13       29.93R
LOS ANGELES CA PTCLDY    69  61  75 W8        29.86S
BOISE ID       CLEAR     65  44  46 W8        29.92R
SEATTLE WA     CLOUDY    63  57  81 S6        30.00R
$$

*** WEATHER ACROSS MANITOBA...SASKATCHEWAN AND ONTARIO ***
                ***ONTARIO***

CITY           SKY/WX    TMP DP  RH WIND       PRES   REMARKS
GERALDTON      CLOUDY    43  39  87 SW10      29.95F
THUNDER BAY    MOCLDY    45  43  93 E6        29.98F
SIOUX LOOKOUT  LGT RAIN  52  48  87 S12G20    29.71F
TORONTO        CLEAR     43  36  75 NE7       30.28S
BIG TROUT LK   LGT RAIN  46  43  87 S14G23    29.54F FOG
PICKLE LAKE    NOT AVBL
DRYDEN         CLOUDY    55  50  82 S17G31    29.69F
KENORA         CLOUDY    57  54  88 S18G30    29.63F
$$
                *** MANITOBA***

CITY           SKY/WX    TMP DP  RH WIND       PRES   REMARKS
BRANDON        CLOUDY    64  59  82 W12       29.49S
DAUPHIN        MOCLDY    63  59  88 W5        29.43R
ISLAND LAKE    CLOUDY    52  50  93 CALM      29.45F
PILOT MOUND    NOT AVBL
THE PAS        NOT AVBL
THOMPSON       DRIZZLE   52  52 100 NW6       29.43R
WINNIPEG       CLOUDY    68  61  77 S17G24    29.49F
LYNN LAKE      CLOUDY    48  45  87 N7        29.49S
CHURCHILL      CLOUDY    45  45 100 NW10      29.36S
GILLAM         FOG      N/A N/A N/A SW5         N/A  VSB 3/4
$$
                ***SASKATCHEWAN***

CITY           SKY/WX    TMP DP  RH WIND       PRES   REMARKS
ESTEVAN        MOCLDY    57  54  88 SW7       29.54F
KINDERSLEY     CLOUDY    55  52  88 NE6       29.57R
LLOYDMINSTER   CLOUDY    52  46  82 W6        29.59R
PRINCE ALBERT  MOCLDY    52  50  93 SW5       29.54R
REGINA         MOCLDY    55  54  94 W3        29.52S



USA.gov is the U.S. government's official web portal to all federal, state and local government web resources and services.